Lid_Strength_Index
12 15 16 13 13 13 16 16 16 14 12 13 13 13 11 10 11 12 11 10 9 10 8 9 10 9 10 10 11 12 12 13 13 13 14 14 14 14 15 15 15 15 15 15
15 16 13 13 13 14 14 15 15 13 12 14 14 14 12 12 11 10 10 10 10 9 8 11 11 11 11 11 12 13 13 13 12 12 12 13 14 16 14 15 15 15 15 16
14 14 12 13 14 15 15 15 15 15 14 15 16 16 15 13 12 10 11 10 9 9 8 10 12 12 12 12 12 13 12 13 12 13 14 16 16 17 17 16 16 16 15 16
15 12 13 14 14 13 15 13 14 15 17 18 17 19 17 15 14 13 12 10 10 9 9 10 12 13 13 12 12 12 12 13 13 13 14 15 14 15 15 15 16 16 16 16
15 15 15 15 14 14 14 15 15 16 18 18 19 19 17 15 16 14 12 11 11 10 11 12 12 12 12 13 13 13 13 13 13 14 14 14 14 14 17 17 17 17 17 17
15 14 14 14 14 14 14 15 16 18 18 20 18 18 19 17 15 14 12 12 11 10 11 12 13 13 14 15 14 14 14 14 14 14 14 14 14 16 17 17 17 17 17 17
17 16 15 14 16 15 15 17 21 22 23 21 17 19 15 15 14 13 12 12 11 11 13 13 13 14 15 15 15 14 14 14 14 14 14 14 14 16 16 16 16 17 17 18
19 18 16 14 14 16 16 16 18 23 21 18 19 20 17 14 12 12 12 12 13 13 13 13 13 13 14 14 15 14 15 14 14 14 14 14 15 16 15 16 16 16 16 17
18 17 15 15 15 14 17 18 15 18 23 24 18 16 14 15 14 13 13 14 13 13 13 13 14 14 14 15 14 14 14 14 14 14 14 15 15 16 15 16 16 16 17 17
14 16 14 16 15 16 15 15 18 19 22 23 19 20 16 15 14 14 14 14 14 13 14 13 13 13 14 14 14 14 14 13 14 14 14 15 15 16 15 18 17 17 18 18
13 14 15 16 17 15 17 17 17 16 17 19 20 17 14 15 15 14 14 13 13 13 12 12 12 13 13 14 14 14 14 14 15 15 15 15 16 16 16 17 17 18 18 18
12 14 16 15 15 15 15 14 14 17 18 18 17 16 11 11 11 11 11 12 13 13 12 12 12 11 12 13 14 13 13 14 14 14 15 16 16 16 17 17 17 18 18 19
10 14 18 17 13 12 16 14 14 14 14 16 18 16 10 10 10 10 12 11 9 11 11 11 11 12 11 12 13 13 13 14 14 15 16 16 17 17 16 17 18 18 18 19
8 13 15 17 14 12 14 14 14 15 17 16 16 15 13 11 11 10 10 9 9 10 11 11 10 10 11 12 12 13 14 14 14 15 16 16 16 16 16 16 18 18 18 19
10 15 14 13 12 12 12 13 12 13 13 16 14 14 12 10 10 9 8 8 9 11 10 10 11 10 10 11 12 13 13 14 14 15 16 16 15 16 16 17 18 18 18 19
10 14 13 15 13 13 14 13 12 12 12 12 12 13 8 7 7 7 7 7 8 9 9 9 10 11 12 11 11 13 13 14 15 15 16 15 16 17 17 18 18 19 19 19
11 13 14 17 14 14 17 13 13 12 11 12 15 11 10 11 10 8 9 12 12 11 12 13 12 11 12 12 12 13 14 14 15 15 15 16 17 18 18 19 19 19 20 20
12 12 13 16 14 21 13 10 10 12 11 10 12 14 13 14 13 11 11 12 12 11 11 11 11 11 10 10 12 13 16 16 16 15 16 17 18 18 19 19 20 20 20 21
10 11 15 17 17 14 12 11 13 13 13 15 15 15 15 15 14 11 12 12 11 11 11 11 11 11 11 12 12 14 17 17 17 16 16 17 18 18 20 20 19 19 20 21
11 11 14 16 19 20 17 15 13 13 16 14 14 15 15 15 20 17 13 11 11 11 10 11 11 11 11 11 15 16 17 18 17 16 16 17 17 17 18 18 19 19 20 20
21 20 18 16 17 15 14 13 12 17 18 13 14 15 15 17 15 14 12 12 12 11 11 11 11 12 11 13 15 15 17 18 19 19 19 19 18 17 18 18 19 20 20 21
18 18 19 20 23 19 12 13 18 15 12 12 14 14 15 14 15 14 13 13 14 14 13 12 13 13 12 12 15 15 16 18 19 18 19 20 19 19 19 20 20 21 21 22
19 15 17 16 17 12 10 11 10 9 13 13 14 15 15 15 14 15 15 15 15 15 15 14 13 13 12 11 14 15 13 19 20 19 19 19 20 21 20 21 22 21 22 22
14 13 16 16 13 12 11 10 9 10 12 12 13 14 14 15 16 16 16 16 17 17 16 16 15 15 14 12 11 13 13 17 18 18 19 20 20 21 21 21 21 21 22 22
15 13 14 14 12 10 10 10 10 10 10 11 12 13 14 15 16 16 17 18 18 18 17 17 17 18 17 16 13 11 12 17 18 19 20 20 20 21 21 21 21 21 20 20
11 12 13 14 10 10 10 9 9 11 12 12 13 14 14 15 16 16 18 17 18 18 18 19 20 19 19 18 18 17 13 17 17 18 20 21 21 21 21 22 22 18 18 18